Tracking 35280 objects as of 7-Sep-2026
HD Live streaming from Space Station
objects crossing your sky now

STARLINK-4022

Track STARLINK-4022 now!
10-day predictions
STARLINK-4022 is classified as:


NORAD ID: 52629
Int'l Code: 2022-052AH
Launch date: May 14, 2022
Source: United States (US)
Launch site: AIR FORCE EASTERN TEST RANGE (AFETR)
Your satellite tracking list
Your tracking list is empty




NASA's NSSDC Master Catalog

Two Line Element Set (TLE):
1 52629U 22052AH  26249.21243535  .00001096  00000-0  86940-4 0  9990
2 52629  53.1598 178.1070 0001538  75.5296 284.5866 15.08836519238246
Source of the keplerian elements: AFSPC